Chickasha, OK

9:38 PM CST on December 11, 2019 (GMT -0600)
Chickasha Municipal

Weather History for KCHK - November, 2019

Change the Weather History Date:

Wednesday, November 13, 2019

  Actual Average Record
Temperature  
Mean Temperature 38 °F -  
Max Temperature 52 °F 62 °F 79 °F (1955)
Min Temperature 23 °F 39 °F 15 °F (1986)
Degree Days  
Heating Degree Days 28    
Moisture  
Dew Point 16 °F    
Average Humidity 45    
Maximum Humidity 68    
Minimum Humidity 24    
Precipitation  
Precipitation 0.00 in - - ()
Sea Level Pressure  
Sea Level Pressure 30.08 in    
Wind  
Wind Speed 11 mph (South)    
Max Wind Speed 21 mph    
Max Gust Speed 30 mph    
Visibility 10 miles    
Events      
Averages and records for this station are not official NWS values.
T = Trace of Precipitation, MM = Missing Value Source: NWS Daily Summary

Daily Weather History Graph

Daily Weather History Graph

Search for Another Location

Airport or City:

Astronomy

Nov. 13, 2019 Rise Set
Actual Time 7:04 AM CST 5:27 PM CST
Civil Twilight 6:37 AM CST 5:54 PM CST
Nautical Twilight 6:07 AM CST 6:24 PM CST
Astronomical Twilight 5:37 AM CST 6:54 PM CST
Moon 6:33 PM CST (11/13) 7:58 AM CST (11/13)
Length of Visible Light 11h 16m
Length of Day
10h 23m
Full, 99% of the Moon is Illuminated
Nov 13
Full
Nov 19
Last Quarter
Nov 26
New
Dec 4
First Quarter
Dec 11
Full

Hourly Weather History & Observations

Time (CST) Temp. Windchill Dew Point Humidity Pressure Visibility Wind Dir Wind Speed Gust Speed Precip Events Conditions
12:15 AM 23.2 °F 14.1 °F 12.7 °F 64% 30.25 in 10.0 mi SSE 8.1 mph - N/A   Clear
12:35 AM 24.8 °F 16.1 °F 12.9 °F 61% 30.24 in 10.0 mi South 8.1 mph - N/A   Clear
12:55 AM 26.4 °F 17.3 °F 12.7 °F 56% 30.24 in 10.0 mi South 9.2 mph - N/A   Clear
1:15 AM 26.4 °F 18.0 °F 13.1 °F 57% 30.22 in 10.0 mi South 8.1 mph - N/A   Clear
1:35 AM 26.1 °F 16.2 °F 13.1 °F 58% 30.21 in 10.0 mi South 10.4 mph - N/A   Clear
2:15 AM 25.9 °F 15.3 °F 13.3 °F 59% 30.19 in 10.0 mi South 11.5 mph - N/A   Clear
2:35 AM 25.2 °F 15.1 °F 13.6 °F 62% 30.18 in 10.0 mi South 10.4 mph - N/A   Clear
2:55 AM 25.0 °F 14.8 °F 14.0 °F 63% 30.19 in 10.0 mi South 10.4 mph - N/A   Clear
3:15 AM 25.3 °F 15.3 °F 14.0 °F 62% 30.18 in 10.0 mi South 10.4 mph - N/A   Clear
3:35 AM 25.5 °F 16.2 °F 14.0 °F 62% 30.17 in 10.0 mi South 9.2 mph - N/A   Clear
3:55 AM 26.6 °F 15.2 °F 13.1 °F 57% 30.15 in 10.0 mi South 13.8 mph - N/A   Clear
4:15 AM 25.5 °F 14.3 °F 12.9 °F 59% 30.14 in 10.0 mi SSE 12.7 mph - N/A   Clear
4:35 AM 24.8 °F 15.3 °F 12.9 °F 61% 30.14 in 10.0 mi SSE 9.2 mph - N/A   Clear
4:55 AM 24.3 °F 13.9 °F 13.3 °F 63% 30.13 in 10.0 mi SSE 10.4 mph - N/A   Clear
5:15 AM 24.6 °F 13.8 °F 13.3 °F 62% 30.13 in 10.0 mi SSE 11.5 mph - N/A   Clear
5:35 AM 23.4 °F 15.2 °F 13.8 °F 67% 30.14 in 10.0 mi SSE 6.9 mph - N/A   Clear
5:55 AM 23.2 °F 13.3 °F 13.5 °F 66% 30.13 in 10.0 mi SSE 9.2 mph - N/A   Clear
6:15 AM 24.8 °F 14.6 °F 13.1 °F 61% 30.13 in 10.0 mi SSE 10.4 mph - N/A   Clear
6:35 AM 24.3 °F 15.4 °F 13.5 °F 63% 30.13 in 10.0 mi SE 8.1 mph - N/A   Clear
7:55 AM 28.8 °F 17.9 °F 13.6 °F 53% 30.12 in 10.0 mi South 13.8 mph - N/A   Clear
8:15 AM 30.4 °F 20.0 °F 13.5 °F 50% 30.12 in 10.0 mi South 13.8 mph 19.6 mph N/A   Clear
8:35 AM 31.1 °F 20.5 °F 13.6 °F 48% 30.11 in 10.0 mi South 15.0 mph 19.6 mph N/A   Clear
8:55 AM 32.2 °F 21.8 °F 13.6 °F 46% 30.11 in 10.0 mi South 15.0 mph - N/A   Clear
10:15 AM 38.3 °F 28.4 °F 14.4 °F 38% 30.10 in 10.0 mi South 19.6 mph 25.3 mph N/A   Clear
10:35 AM 39.9 °F 31.1 °F 14.9 °F 36% 30.09 in 10.0 mi South 17.3 mph - N/A   Clear
10:55 AM 41.0 °F 31.9 °F 14.5 °F 34% 30.08 in 10.0 mi South 19.6 mph 27.6 mph N/A   Clear
11:15 AM 43.5 °F 35.8 °F 16.2 °F 33% 30.07 in 10.0 mi South 17.3 mph 25.3 mph N/A   Clear
11:35 AM 44.8 °F 36.9 °F 14.5 °F 30% 30.06 in 10.0 mi SSW 19.6 mph 25.3 mph N/A   Clear
11:55 AM 45.5 °F 38.1 °F 14.9 °F 29% 30.03 in 10.0 mi South 18.4 mph 29.9 mph N/A   Clear
12:15 PM 46.2 °F 38.5 °F 14.5 °F 28% 30.03 in 10.0 mi South 20.7 mph 27.6 mph N/A   Clear
12:35 PM 47.3 °F - 15.3 °F 28% 30.01 in 10.0 mi South 17.3 mph 27.6 mph N/A   Clear
12:55 PM 48.0 °F - 14.9 °F 27% 30.01 in 10.0 mi South 20.7 mph - N/A   Clear
1:15 PM 49.3 °F - 15.1 °F 26% 29.99 in 10.0 mi South 17.3 mph 25.3 mph N/A   Clear
1:35 PM 49.6 °F - 14.7 °F 25% 29.97 in 10.0 mi South 17.3 mph 27.6 mph N/A   Clear
1:55 PM 50.7 °F - 16.2 °F 25% 29.97 in 10.0 mi South 15.0 mph 25.3 mph N/A   Clear
2:15 PM 51.1 °F - 14.7 °F 24% 29.97 in 10.0 mi South 17.3 mph 24.2 mph N/A   Clear
2:35 PM 52.0 °F - 15.6 °F 24% 29.96 in 10.0 mi South 17.3 mph 21.9 mph N/A   Clear
2:55 PM 52.0 °F - 15.6 °F 24% 29.95 in 10.0 mi South 11.5 mph - N/A   Clear
3:35 PM 52.7 °F - 16.3 °F 24% 29.95 in 10.0 mi South 15.0 mph 19.6 mph N/A   Clear
3:55 PM 52.7 °F - 16.2 °F 24% 29.96 in 10.0 mi SSW 12.7 mph - N/A   Clear
4:35 PM 51.4 °F - 16.7 °F 25% 29.98 in 10.0 mi SSW 9.2 mph - N/A   Clear
4:55 PM 50.5 °F - 17.4 °F 27% 30.00 in 10.0 mi SSW 10.4 mph - N/A   Clear
5:15 PM 49.1 °F - 17.6 °F 29% 30.00 in 10.0 mi SSW 10.4 mph - N/A   Clear
5:55 PM 45.9 °F 42.3 °F 18.3 °F 33% 30.01 in 10.0 mi South 6.9 mph - N/A   Clear
6:15 PM 44.2 °F 41.0 °F 18.1 °F 35% 30.02 in 10.0 mi South 5.8 mph - N/A   Clear
6:35 PM 43.2 °F 39.0 °F 17.6 °F 36% 30.03 in 10.0 mi SSE 6.9 mph - N/A   Clear
6:55 PM 41.4 °F 37.6 °F 18.1 °F 39% 30.03 in 10.0 mi SSE 5.8 mph - N/A   Clear
7:15 PM 40.1 °F 34.7 °F 18.9 °F 43% 30.04 in 10.0 mi SE 8.1 mph - N/A   Clear
7:35 PM 39.4 °F 34.5 °F 18.7 °F 43% 30.04 in 10.0 mi SE 6.9 mph - N/A   Clear
7:55 PM 38.1 °F 32.3 °F 19.4 °F 47% 30.05 in 10.0 mi SE 8.1 mph - N/A   Clear
8:15 PM 37.6 °F 32.3 °F 19.2 °F 48% 30.06 in 10.0 mi SE 6.9 mph - N/A   Clear
8:35 PM 37.0 °F 31.6 °F 19.4 °F 49% 30.06 in 10.0 mi SE 6.9 mph - N/A   Clear
8:55 PM 36.9 °F 32.2 °F 19.6 °F 50% 30.07 in 10.0 mi SE 5.8 mph - N/A   Clear
9:15 PM 36.3 °F 30.8 °F 20.1 °F 52% 30.08 in 10.0 mi SE 6.9 mph - N/A   Clear
9:35 PM 36.0 °F 32.1 °F 20.1 °F 53% 30.08 in 10.0 mi SE 4.6 mph - N/A   Clear
9:55 PM 35.8 °F 31.9 °F 20.1 °F 53% 30.09 in 10.0 mi SE 4.6 mph - N/A   Clear
11:15 PM 32.2 °F - 20.1 °F 61% 30.10 in 10.0 mi Calm Calm - N/A   Clear
11:55 PM 30.4 °F 26.9 °F 20.8 °F 68% 30.10 in 10.0 mi NE 3.5 mph - N/A   Clear